When you browse on this site, cookies collect data to enhance your experience and personalize the content and advertising you see.
Visit our Privacy Policy to learn more. By continuing to use the site, you agree to this use of cookies and data.
  • In Romania
  • List of Countries
  • For 7 days
  • Water Temperature
  • Satellite Maps
  • Weather Map
  • Weather Widgets
  • user-avatar
    Login

    Hourly Weather Nam Dinh

    Today, 20 March, Wednesday

    Time Temperature Precipitation Wind Pressure Humidity
    00:00 +26°C° 0 mm 4 mps 757 mmHg 90%
    01:00 +26°C° 0 mm 3 mps 757 mmHg 91%
    02:00 +26°C° 0 mm 3 mps 757 mmHg 90%
    03:00 +26°C° 0 mm 4 mps 757 mmHg 90%
    04:00 +26°C° 0 mm 4 mps 756 mmHg 90%
    05:00 +26°C° 0 mm 4 mps 757 mmHg 89%
    06:00 +27°C° 0 mm 4 mps 757 mmHg 89%
    07:00 +27°C° 0 mm 4 mps 757 mmHg 89%
    08:00 +27°C° 0 mm 4 mps 757 mmHg 86%
    09:00 +28°C° 0 mm 4 mps 758 mmHg 82%
    10:00 +29°C° 0 mm 4 mps 758 mmHg 79%
    11:00 +30°C° 0 mm 5 mps 757 mmHg 73%
    12:00 +33°C° 0 mm 5 mps 756 mmHg 67%
    13:00 +34°C° 0 mm 5 mps 756 mmHg 61%
    14:00 +34°C° 0 mm 5 mps 755 mmHg 62%
    15:00 +33°C° 0 mm 5 mps 755 mmHg 64%
    16:00 +33°C° 0 mm 5 mps 754 mmHg 65%
    17:00 +30°C° 0 mm 5 mps 754 mmHg 70%
    18:00 +29°C° 0 mm 5 mps 755 mmHg 76%
    19:00 +28°C° 0 mm 4 mps 755 mmHg 81%
    20:00 +27°C° 0 mm 5 mps 755 mmHg 82%
    21:00 +27°C° 0 mm 5 mps 756 mmHg 83%
    22:00 +27°C° 0 mm 5 mps 756 mmHg 84%
    23:00 +27°C° 0 mm 5 mps 756 mmHg 85%

    Tomorrow, 21 March, Thursday

    Time Temperature Precipitation Wind Pressure Humidity
    00:00 +27°C° 0 mm 5 mps 756 mmHg 85%
    01:00 +27°C° 0 mm 5 mps 756 mmHg 86%
    02:00 +27°C° 0 mm 4 mps 756 mmHg 87%
    03:00 +26°C° 0 mm 4 mps 755 mmHg 88%
    04:00 +26°C° 0 mm 4 mps 755 mmHg 88%
    05:00 +26°C° 0 mm 4 mps 755 mmHg 88%
    06:00 +27°C° 0 mm 3 mps 755 mmHg 88%
    07:00 +27°C° 0 mm 3 mps 755 mmHg 88%
    08:00 +28°C° 0 mm 4 mps 756 mmHg 82%
    09:00 +30°C° 0 mm 4 mps 756 mmHg 75%
    10:00 +32°C° 0 mm 4 mps 757 mmHg 69%
    11:00 +34°C° 0 mm 4 mps 756 mmHg 64%
    12:00 +35°C° 0 mm 4 mps 755 mmHg 59%
    13:00 +36°C° 0 mm 4 mps 755 mmHg 55%
    14:00 +35°C° 0 mm 4 mps 754 mmHg 58%
    15:00 +34°C° 0 mm 5 mps 753 mmHg 61%
    16:00 +34°C° 0 mm 5 mps 753 mmHg 64%
    17:00 +32°C° 0 mm 5 mps 753 mmHg 70%
    18:00 +30°C° 0 mm 4 mps 753 mmHg 75%
    19:00 +28°C° 0 mm 3 mps 754 mmHg 80%
    20:00 +28°C° 0 mm 3 mps 754 mmHg 82%
    21:00 +28°C° 0 mm 2 mps 755 mmHg 83%
    22:00 +27°C° 0 mm 2 mps 756 mmHg 85%
    23:00 +27°C° 0 mm 2 mps 755 mmHg 87%

    Day after tomorrow, 22 March, Friday

    Time Temperature Precipitation Wind Pressure Humidity
    00:00 +27°C° 0 mm 2 mps 755 mmHg 89%
    01:00 +27°C° 0 mm 2 mps 755 mmHg 91%
    02:00 +27°C° 0 mm 2 mps 755 mmHg 92%
    03:00 +26°C° 0 mm 2 mps 754 mmHg 92%
    04:00 +26°C° 0 mm 2 mps 754 mmHg 93%
    05:00 +27°C° 0 mm 2 mps 755 mmHg 92%
    06:00 +27°C° 0 mm 2 mps 755 mmHg 91%
    07:00 +27°C° 0 mm 2 mps 756 mmHg 90%
    08:00 +28°C° 0 mm 1 mps 756 mmHg 86%
    09:00 +29°C° 0 mm 1 mps 757 mmHg 82%
    10:00 +30°C° 0 mm 1 mps 757 mmHg 78%
    11:00 +31°C° 0 mm 1 mps 757 mmHg 73%
    12:00 +32°C° 0 mm 2 mps 756 mmHg 68%
    13:00 +34°C° 0 mm 2 mps 755 mmHg 62%
    14:00 +34°C° 0 mm 3 mps 754 mmHg 65%
    15:00 +33°C° 0 mm 4 mps 754 mmHg 68%
    16:00 +33°C° 0 mm 5 mps 753 mmHg 71%
    17:00 +30°C° 0 mm 5 mps 754 mmHg 76%
    18:00 +29°C° 0 mm 5 mps 754 mmHg 81%
    19:00 +27°C° 0 mm 5 mps 755 mmHg 85%
    20:00 +27°C° 0 mm 4 mps 756 mmHg 85%
    21:00 +27°C° 0 mm 3 mps 757 mmHg 85%
    22:00 +27°C° 0 mm 2 mps 758 mmHg 85%
    23:00 +27°C° 0 mm 2 mps 758 mmHg 84%

    23 March, Saturday

    Time Temperature Precipitation Wind Pressure Humidity
    00:00 +27°C° 0 mm 2 mps 758 mmHg 83%
    01:00 +27°C° 0 mm 3 mps 758 mmHg 82%
    02:00 +27°C° 0 mm 3 mps 758 mmHg 81%
    03:00 +27°C° 0 mm 2 mps 758 mmHg 80%
    04:00 +26°C° 0 mm 2 mps 758 mmHg 79%
    05:00 +26°C° 0 mm 2 mps 758 mmHg 80%
    06:00 +26°C° 0 mm 2 mps 759 mmHg 81%
    07:00 +26°C° 0 mm 2 mps 760 mmHg 82%
    08:00 +26°C° 0 mm 3 mps 760 mmHg 80%
    09:00 +27°C° 0 mm 3 mps 761 mmHg 78%
    10:00 +27°C° 0 mm 3 mps 762 mmHg 76%
    11:00 +27°C° 0.1 mm 3 mps 761 mmHg 76%
    12:00 +27°C° 0.1 mm 3 mps 761 mmHg 76%
    13:00 +26°C° 0.1 mm 4 mps 760 mmHg 76%
    14:00 +26°C° 0.2 mm 3 mps 760 mmHg 78%
    15:00 +26°C° 0.2 mm 3 mps 759 mmHg 79%
    16:00 +25°C° 0.2 mm 3 mps 759 mmHg 80%
    17:00 +25°C° 0.2 mm 4 mps 759 mmHg 81%
    18:00 +25°C° 0.2 mm 4 mps 760 mmHg 82%
    19:00 +23°C° 0.2 mm 4 mps 760 mmHg 83%
    20:00 +23°C° 0.2 mm 4 mps 761 mmHg 84%
    21:00 +23°C° 0.2 mm 5 mps 761 mmHg 85%
    22:00 +22°C° 0.2 mm 5 mps 762 mmHg 85%
    23:00 +22°C° 1 mm 4 mps 761 mmHg 87%

    24 March, Sunday

    Time Temperature Precipitation Wind Pressure Humidity
    00:00 +22°C° 1 mm 4 mps 761 mmHg 88%
    01:00 +22°C° 1 mm 3 mps 760 mmHg 89%
    02:00 +22°C° 0.2 mm 3 mps 760 mmHg 89%
    03:00 +22°C° 0.2 mm 3 mps 760 mmHg 89%
    04:00 +22°C° 0.2 mm 4 mps 760 mmHg 89%
    05:00 +22°C° 0.3 mm 3 mps 760 mmHg 90%
    06:00 +22°C° 0.3 mm 3 mps 760 mmHg 90%
    07:00 +22°C° 0.3 mm 3 mps 761 mmHg 91%
    08:00 +22°C° 0.1 mm 3 mps 761 mmHg 89%
    09:00 +24°C° 0.1 mm 3 mps 762 mmHg 87%
    10:00 +25°C° 0.1 mm 3 mps 762 mmHg 84%
    11:00 +25°C° 0.4 mm 3 mps 761 mmHg 84%
    12:00 +26°C° 0.4 mm 2 mps 760 mmHg 83%
    13:00 +26°C° 0.4 mm 2 mps 760 mmHg 82%
    14:00 +27°C° 0.2 mm 3 mps 759 mmHg 79%
    15:00 +28°C° 0.2 mm 4 mps 759 mmHg 76%
    16:00 +28°C° 0.2 mm 4 mps 758 mmHg 73%
    17:00 +27°C° 0 mm 4 mps 759 mmHg 78%
    18:00 +26°C° 0 mm 3 mps 759 mmHg 84%
    19:00 +26°C° 0 mm 2 mps 760 mmHg 90%
    20:00 +25°C° 0 mm 2 mps 760 mmHg 91%
    21:00 +25°C° 0 mm 2 mps 760 mmHg 93%
    22:00 +25°C° 0 mm 2 mps 760 mmHg 95%
    23:00 +25°C° 0 mm 2 mps 760 mmHg 96%

    25 March, Monday

    Time Temperature Precipitation Wind Pressure Humidity
    00:00 +24°C° 0 mm 2 mps 759 mmHg 96%
    01:00 +24°C° 0 mm 2 mps 759 mmHg 96%
    02:00 +24°C° 0.1 mm 2 mps 759 mmHg 96%
    03:00 +24°C° 0.1 mm 2 mps 759 mmHg 96%
    04:00 +25°C° 0.1 mm 2 mps 759 mmHg 96%
    05:00 +25°C° 0 mm 2 mps 759 mmHg 95%
    06:00 +25°C° 0 mm 2 mps 760 mmHg 93%
    07:00 +26°C° 0 mm 2 mps 760 mmHg 91%
    08:00 +27°C° 0.1 mm 3 mps 760 mmHg 83%
    09:00 +29°C° 0.1 mm 4 mps 761 mmHg 75%
    10:00 +30°C° 0.1 mm 5 mps 761 mmHg 67%
    11:00 +32°C° 0 mm 5 mps 760 mmHg 65%
    12:00 +32°C° 0 mm 5 mps 760 mmHg 63%
    13:00 +33°C° 0 mm 6 mps 759 mmHg 61%
    14:00 +32°C° 0 mm 6 mps 759 mmHg 62%
    15:00 +32°C° 0 mm 5 mps 758 mmHg 64%
    16:00 +30°C° 0 mm 5 mps 758 mmHg 65%
    17:00 +29°C° 0 mm 4 mps 758 mmHg 72%
    18:00 +28°C° 0 mm 4 mps 759 mmHg 78%
    19:00 +27°C° 0 mm 3 mps 759 mmHg 84%
    20:00 +27°C° 0 mm 3 mps 759 mmHg 86%
    21:00 +26°C° 0 mm 3 mps 760 mmHg 88%
    22:00 +26°C° 0 mm 2 mps 760 mmHg 90%
    23:00 +26°C° 0 mm 2 mps 760 mmHg 91%
    Show more